Simultaneous Nadir Overpasses (SNOs) Predictions

Prediction of SNOs between NOAA-19 and TERRA Satellite Orbit:

Table of predicted SNOs for the next 14.0 days since TLE Epoch: 10/8/2016
Index Date (NOAA-19) Time (NOAA-19) Lat,Lon (NOAA-19) SZA (NOAA-19 ) Date (TERRA) Time (TERRA) Lat,Lon (TERRA) SZA (TERRA ) Distance(km) Time Diff (sec)
1 10/08/2016 18:59:06 -74.36, 83.46 99.15 10/08/2016 18:59:20 -74.35, 83.54 99.16 2.95 14
2 10/08/2016 19:50:01 74.05,-108.45 80.60 10/08/2016 19:48:49 74.17,-109.24 80.66 27.64 72
3 10/11/2016 00:33:05 74.31,-179.85 81.67 10/11/2016 00:33:03 74.33,-179.93 81.67 2.96 2
4 10/13/2016 05:16:06 74.44, 109.10 82.61 10/13/2016 05:17:18 74.44, 109.25 82.62 4.53 72
5 10/13/2016 06:07:03 -74.34, -83.36 97.47 10/13/2016 06:06:48 -74.31, -83.41 97.51 3.33 15
6 10/15/2016 10:50:02 -74.41,-154.23 96.59 10/15/2016 10:51:03 -74.42,-154.24 96.57 1.15 61
7 10/15/2016 11:41:04 74.35, 13.17 83.38 10/15/2016 11:40:30 74.34, 13.22 83.36 1.75 34
8 10/17/2016 16:24:03 74.39, -57.65 84.23 10/17/2016 16:24:46 74.38, -57.75 84.22 3.27 43
9 10/17/2016 17:15:00 -74.34, 109.76 95.81 10/17/2016 17:14:15 -74.31, 109.73 95.85 3.10 45
10 10/19/2016 21:57:59 -74.42, 38.86 94.95 10/19/2016 21:58:30 -74.41, 38.88 94.95 1.09 31
11 10/19/2016 22:49:01 74.31,-153.61 84.98 10/19/2016 22:47:57 74.32,-153.68 84.98 2.70 64
